Weather Roundup
Issued by NWS Springfield, MO

Home | Current Version | Previous Version | Text Only | Print | Product List | Glossary On
Versions: 1 2 3 4 5 6 7 8 9 10 11 12 13 14 15 16 17 18 19 20 21 22 23 24 25 26 27 28 29 30 31 32 33 34 35 36 37 38 39 40 41 42 43 44 45 46 47 48 49 50
000
NZUS99 KSGF 280059
HRRSGF

HOURLY WEATHER
NATIONAL WEATHER SERVICE SPRINGFIELD MO
800 PM CDT FRI MAR 27 2015

......SGF CWA......

CITY           SKY/WX    TMP DP  RH WIND       PRES   REMARKS
SPRINGFIELD    CLOUDY    42  22  44 NW8       30.15R
JOPLIN         CLOUDY    45  23  42 NW5       30.16R
WEST PLAINS    MOCLDY    41  17  38 CALM      30.12S
ROLLA          MOCLDY    37  21  52 CALM      30.12S
OSAGE BEACH    CLOUDY    39  19  45 N3        30.16R
BRANSON        CLOUDY    41  23  48 NW9       30.14R

......SURROUNDING SGF CWA......

CITY           SKY/WX    TMP DP  RH WIND       PRES   REMARKS
CHANUTE        CLOUDY    46  19  34 NE7       30.15F
PARSONS        CLOUDY    48  29  47 CALM      30.16S
COFFEYVILLE    CLOUDY    49  28  44 NE3       30.15S
EMPORIA        CLOUDY    44  20  38 E5        30.12F
SILOAM SPRINGS CLOUDY    45  25  45 N9        30.16S
HARRISON AR    MOCLDY    42  22  44 NW3       30.13R
NEAR YELLVILLE CLEAR     45  23  42 NW5       30.13S

......KANSAS AND MISSOURI......

CITY           SKY/WX    TMP DP  RH WIND       PRES   REMARKS
KANSAS CTY INT CLOUDY    40  22  48 W5        30.16R
DOWNTOWN KC    CLOUDY    43  17  35 NW6       30.16S
COLUMBIA       CLOUDY    40  20  44 CALM      30.15R
SEDALIA        CLOUDY    41  24  51 CALM      30.17R
ST JOSEPH      CLOUDY    39  22  50 NW6       30.17R WCI  35
ST LOUIS       PTCLDY    37  18  46 N6        30.16S WCI  32
SPIRIT OF STL  CLEAR     36  19  50 CALM      30.16S
KIRKSVILLE     CLOUDY    36  20  52 NE5       30.15R WCI  32
WICHITA        CLOUDY    49  28  44 S5        30.11F
TOPEKA         CLOUDY    42  21  43 NE8       30.16S
OLATHE         CLOUDY    41  19  41 NW7       30.15S

......TENNESSEE......

CITY           SKY/WX    TMP DP  RH WIND       PRES   REMARKS
MEMPHIS        PTCLDY    44  30  57 N9        30.14R
NASHVILLE      CLOUDY    39  30  70 NW9       30.10R WCI  33

......ARKANSAS.......

CITY           SKY/WX    TMP DP  RH WIND       PRES   REMARKS
FAYETTEVILLE   CLOUDY    45  26  47 W6        30.14R
FT SMITH       MOCLDY    51  25  36 N8        30.14R
LITTLE ROCK    MOCLDY    49  26  41 N5        30.14R

......OKLAHOMA.......

CITY           SKY/WX    TMP DP  RH WIND       PRES   REMARKS
TULSA          MOCLDY    50  26  39 E3        30.13F
PONCA CITY     CLOUDY    51  28  41 CALM      30.13F
MCALESTER      PTCLDY    52  33  48 E3        30.15R
OKLAHOMA CITY  PTCLDY    52  34  50 W3        30.14F

......IOWA............

CITY           SKY/WX    TMP DP  RH WIND       PRES   REMARKS
DES MOINES     CLOUDY    38   8  29 CALM      30.16R
QUAD CITIES    CLEAR     33   8  35 NE5       30.17R WCI  29

......ILLINOIS........

CITY           SKY/WX    TMP DP  RH WIND       PRES   REMARKS
QUINCY         FAIR      33  16  49 NE6       30.15S WCI  28
CHICAGO        PTCLDY    25  14  63 N12       30.18S WCI  14



USA.gov is the U.S. government's official web portal to all federal, state and local government web resources and services.